User: anonymous   Login
Location: Caltech
(34.1382°N, 118.1253°W)
Time: 11:43:48
(UTC-07:00)
Language:

ITAMSAT 1 - Orbit

View from above orbital plane
View from above orbital plane
View from above satellite
View from above satellite

Ground track
Ground track

The orbit data is extracted from the following two-line orbital elements,

1 22826U 93061D   17290.15262589  .00000014  00000-0  22866-4 0  9999
2 22826  98.8226 257.3938 0008454 332.2968  27.7762 14.30339604255015
Epoch (UTC): 17 October 2017 03:39:46
Eccentricity: 0.0008454
inclination: 98.8226°
perigee height: 784 km
apogee height: 796 km
right ascension of ascending node: 257.3938°
argument of perigee: 332.2968°
revolutions per day: 14.30339604
mean anomaly at epoch: 27.7762°
orbit number at epoch: 25501

The dashed part of the orbit path shows where the satellite is in the earth's shadow,  

DLR